AUA210 EGLC-LOWW

Flight info

Callsign AUA210
Flight time N/A
Altitude 35000
Route SOQQA M87 UMTUM UL9 KONAN UL607 MATUG DCT GUBAX DCT BOREP DCT ENITA DCT ETVIS DCT BUDEX
Aircraft A320/M-SDE3FGHIRWY/LB1

Departure

Time 2026-05-05 09:21
Airport London City Airport (EGLC)

Arrival

Time N/A
Airport Vienna International Airport (LOWW)
Time Latitude Longitude Altitude Speed Heading
2026-05-05 09:01 51.50411 0.05131 30 ft 0 kts 329°
2026-05-05 09:17 51.50424 0.05118 31 ft 7 kts 328°
2026-05-05 09:17 51.50455 0.05059 28 ft 6 kts 295°
2026-05-05 09:17 51.50463 0.04998 28 ft 5 kts 273°
2026-05-05 09:18 51.50464 0.04945 27 ft 4 kts 270°
2026-05-05 09:18 51.50464 0.04901 29 ft 4 kts 271°
2026-05-05 09:18 51.50465 0.04864 25 ft 3 kts 272°
2026-05-05 09:18 51.50468 0.04758 25 ft 20 kts 273°
2026-05-05 09:19 51.50476 0.04531 29 ft 14 kts 272°
2026-05-05 09:19 51.50497 0.04451 29 ft 5 kts 321°
2026-05-05 09:19 51.50525 0.04437 28 ft 4 kts 353°
2026-05-05 09:19 51.50547 0.04448 30 ft 7 kts 46°
2026-05-05 09:20 51.50555 0.04484 28 ft 0 kts 86°
2026-05-05 09:20 51.50555 0.04491 28 ft 0 kts 91°
2026-05-05 09:20 51.50554 0.04537 26 ft 29 kts 92°
2026-05-05 09:20 51.50534 0.05391 30 ft 120 kts 93°
2026-05-05 09:21 51.50469 0.07047 395 ft 161 kts 90°
2026-05-05 09:21 51.50409 0.08894 1329 ft 166 kts 86°
2026-05-05 09:21 51.50452 0.10704 2137 ft 159 kts 71°
2026-05-05 09:21 51.50916 0.12259 2894 ft 153 kts 52°
2026-05-05 09:22 51.51668 0.13482 3504 ft 161 kts 37°
2026-05-05 09:22 51.52626 0.14292 3806 ft 182 kts 27°
2026-05-05 09:22 51.53829 0.15192 4119 ft 204 kts 27°
2026-05-05 09:22 51.55043 0.16456 4741 ft 212 kts 50°
2026-05-05 09:23 51.55729 0.18604 5329 ft 230 kts 77°
2026-05-05 09:23 51.56023 0.21271 5778 ft 254 kts 80°
2026-05-05 09:23 51.56343 0.24136 6464 ft 266 kts 73°
2026-05-05 09:23 51.57050 0.26919 7263 ft 272 kts 66°
2026-05-05 09:24 51.57509 0.29881 8113 ft 279 kts 89°
2026-05-05 09:24 51.57136 0.32954 8957 ft 286 kts 114°
2026-05-05 09:24 51.55975 0.35565 9833 ft 291 kts 131°
2026-05-05 09:24 51.54590 0.38016 10392 ft 306 kts 131°
2026-05-05 09:25 51.53101 0.40646 10691 ft 329 kts 131°
2026-05-05 09:25 51.51537 0.43415 11302 ft 339 kts 131°
2026-05-05 09:25 51.49939 0.46240 12079 ft 343 kts 131°
2026-05-05 09:25 51.48327 0.49090 12880 ft 346 kts 131°
2026-05-05 09:26 51.46700 0.51966 13666 ft 350 kts 131°
2026-05-05 09:26 51.45054 0.54871 14370 ft 353 kts 131°
2026-05-05 09:26 51.43400 0.57783 15061 ft 356 kts 131°
2026-05-05 09:26 51.41729 0.60726 15752 ft 359 kts 132°
2026-05-05 09:27 51.40051 0.63719 16419 ft 362 kts 131°
2026-05-05 09:27 51.38425 0.66809 17124 ft 364 kts 129°
2026-05-05 09:27 51.36828 0.69977 17794 ft 368 kts 129°
2026-05-05 09:27 51.35236 0.73193 18456 ft 370 kts 129°
2026-05-05 09:28 51.33638 0.76421 19069 ft 371 kts 129°
2026-05-05 09:28 51.32017 0.79669 19659 ft 374 kts 129°
2026-05-05 09:28 51.30406 0.82873 20270 ft 375 kts 130°
2026-05-05 09:28 51.28736 0.86170 20808 ft 379 kts 130°
2026-05-05 09:29 51.27087 0.89403 21344 ft 381 kts 130°
2026-05-05 09:29 51.25383 0.92729 21903 ft 383 kts 130°
2026-05-05 09:29 51.23704 0.95997 22397 ft 386 kts 131°
2026-05-05 09:29 51.22068 0.99412 22930 ft 390 kts 124°
2026-05-05 09:30 51.20803 1.03256 23464 ft 395 kts 114°
2026-05-05 09:30 51.19995 1.07459 23872 ft 400 kts 104°
2026-05-05 09:30 51.19436 1.11831 24261 ft 404 kts 104°
2026-05-05 09:30 51.18867 1.16228 24661 ft 407 kts 104°
2026-05-05 09:31 51.18289 1.20655 25059 ft 410 kts 104°
2026-05-05 09:31 51.17702 1.25108 25437 ft 413 kts 104°
2026-05-05 09:31 51.17104 1.29604 25817 ft 416 kts 104°
2026-05-05 09:31 51.16500 1.34131 26194 ft 419 kts 104°
2026-05-05 09:32 51.16119 1.38719 26557 ft 424 kts 96°
2026-05-05 09:32 51.15900 1.43416 26921 ft 426 kts 97°
2026-05-05 09:32 51.15678 1.48150 27292 ft 429 kts 97°
2026-05-05 09:32 51.15454 1.52902 27662 ft 432 kts 96°
2026-05-05 09:33 51.15225 1.57683 28023 ft 434 kts 97°
2026-05-05 09:33 51.14989 1.62495 28386 ft 437 kts 97°
2026-05-05 09:33 51.14749 1.67332 28745 ft 440 kts 97°
2026-05-05 09:33 51.14504 1.72198 29087 ft 442 kts 97°
2026-05-05 09:34 51.14255 1.77100 29432 ft 445 kts 97°
2026-05-05 09:34 51.14007 1.81955 29747 ft 447 kts 97°
2026-05-05 09:34 51.13751 1.86969 30061 ft 450 kts 97°
2026-05-05 09:34 51.13497 1.91878 30316 ft 452 kts 97°
2026-05-05 09:35 51.13235 1.96876 30577 ft 454 kts 97°
2026-05-05 09:35 51.12707 2.06957 31086 ft 459 kts 97°
2026-05-05 09:35 51.12442 2.12036 31333 ft 461 kts 97°
2026-05-05 09:36 51.12169 2.17187 31679 ft 461 kts 97°
2026-05-05 09:36 51.11988 2.20548 31914 ft 461 kts 97°
2026-05-05 09:36 51.11710 2.25627 32258 ft 461 kts 97°
2026-05-05 09:36 51.11429 2.30705 32579 ft 461 kts 97°
2026-05-05 09:37 51.11145 2.35784 32921 ft 461 kts 97°
2026-05-05 09:37 51.10861 2.40864 33243 ft 461 kts 98°
2026-05-05 09:37 51.10574 2.45948 33596 ft 461 kts 98°
2026-05-05 09:37 51.10286 2.51024 33939 ft 461 kts 98°
2026-05-05 09:38 51.09994 2.56104 34245 ft 460 kts 98°
2026-05-05 09:38 51.09703 2.61164 34541 ft 460 kts 98°
2026-05-05 09:38 51.09256 2.66184 34814 ft 457 kts 105°
2026-05-05 09:38 51.08430 2.71063 34918 ft 455 kts 109°
2026-05-05 09:39 51.06682 2.80677 34933 ft 451 kts 109°
2026-05-05 09:39 51.04928 2.90231 34941 ft 450 kts 110°
2026-05-05 09:40 51.03181 2.99771 34937 ft 450 kts 110°
2026-05-05 09:40 51.01433 3.09319 34930 ft 449 kts 110°
2026-05-05 09:41 50.99678 3.18841 34924 ft 449 kts 110°
2026-05-05 09:41 50.97912 3.28350 34919 ft 449 kts 110°
2026-05-05 09:42 50.96136 3.37850 34914 ft 449 kts 110°
2026-05-05 09:42 50.94356 3.47329 34919 ft 449 kts 110°
2026-05-05 09:43 50.92575 3.56812 34925 ft 448 kts 110°
2026-05-05 09:43 50.90781 3.66272 34927 ft 448 kts 111°
2026-05-05 09:44 50.88974 3.75648 34913 ft 448 kts 111°
2026-05-05 09:44 50.87140 3.85084 34915 ft 448 kts 111°
2026-05-05 09:45 50.85308 3.94512 34920 ft 448 kts 111°
2026-05-05 09:45 50.83475 4.03937 34916 ft 448 kts 111°
2026-05-05 09:46 50.81628 4.13353 34908 ft 448 kts 111°
2026-05-05 09:46 50.79771 4.22745 34910 ft 448 kts 112°
2026-05-05 09:47 50.77910 4.32116 34928 ft 446 kts 112°
2026-05-05 09:47 50.76047 4.41456 34930 ft 445 kts 112°
2026-05-05 09:48 50.74185 4.50764 34930 ft 444 kts 112°
2026-05-05 09:48 50.72317 4.60055 34926 ft 444 kts 112°
2026-05-05 09:49 50.70485 4.69356 34897 ft 444 kts 112°
2026-05-05 09:49 50.68697 4.78682 34904 ft 444 kts 112°
2026-05-05 09:50 50.66899 4.87995 34900 ft 444 kts 112°
2026-05-05 09:50 50.65064 4.97281 34902 ft 443 kts 113°
2026-05-05 09:51 50.63156 5.06513 34893 ft 443 kts 113°
2026-05-05 09:51 50.61225 5.15722 34878 ft 443 kts 114°
2026-05-05 09:52 50.59313 5.24944 34879 ft 443 kts 114°
2026-05-05 09:52 50.57400 5.34160 34885 ft 443 kts 114°
2026-05-05 09:53 50.55481 5.43359 34875 ft 443 kts 114°
2026-05-05 09:53 50.53564 5.52488 34876 ft 443 kts 114°
2026-05-05 09:54 50.51623 5.61741 34859 ft 444 kts 111°
2026-05-05 09:54 50.50342 5.71239 34860 ft 448 kts 107°
2026-05-05 09:55 50.49108 5.80838 34862 ft 448 kts 107°
2026-05-05 09:55 50.47856 5.90400 34865 ft 447 kts 107°
2026-05-05 09:56 50.46600 5.99971 34867 ft 447 kts 107°
2026-05-05 09:56 50.45324 6.09609 34878 ft 458 kts 107°
2026-05-05 09:57 50.44008 6.19479 34863 ft 465 kts 107°
2026-05-05 09:57 50.42684 6.29409 34871 ft 465 kts 107°
2026-05-05 09:58 50.41479 6.39393 34852 ft 469 kts 102°
2026-05-05 09:58 50.40725 6.49558 34843 ft 469 kts 102°
2026-05-05 09:59 50.39953 6.59737 34832 ft 470 kts 102°
2026-05-05 09:59 50.39150 6.69922 34846 ft 471 kts 102°
2026-05-05 10:00 50.38346 6.80110 34851 ft 471 kts 102°
2026-05-05 10:00 50.37534 6.90302 34855 ft 471 kts 102°
2026-05-05 10:01 50.36717 7.00429 34842 ft 472 kts 102°
2026-05-05 10:01 50.35894 7.10632 34842 ft 472 kts 102°
2026-05-05 10:02 50.35060 7.20838 34845 ft 473 kts 102°
2026-05-05 10:02 50.34212 7.31046 34849 ft 473 kts 102°
2026-05-05 10:03 50.33354 7.41257 34833 ft 473 kts 102°
2026-05-05 10:03 50.32492 7.51454 34842 ft 473 kts 102°
2026-05-05 10:04 50.31615 7.61656 34849 ft 473 kts 102°
2026-05-05 10:04 50.30724 7.71867 34851 ft 473 kts 102°
2026-05-05 10:05 50.29830 7.82075 34859 ft 474 kts 103°
2026-05-05 10:05 50.28916 7.92278 34845 ft 474 kts 103°
2026-05-05 10:06 50.27880 8.02447 34855 ft 473 kts 104°
2026-05-05 10:06 50.26739 8.12571 34860 ft 473 kts 105°
2026-05-05 10:07 50.25594 8.22704 34866 ft 473 kts 104°
2026-05-05 10:07 50.24476 8.32839 34856 ft 474 kts 104°
2026-05-05 10:08 50.23358 8.42988 34858 ft 474 kts 104°
2026-05-05 10:08 50.22235 8.53057 34852 ft 473 kts 104°
2026-05-05 10:09 50.21087 8.63178 34853 ft 473 kts 105°
2026-05-05 10:09 50.19922 8.73298 34855 ft 474 kts 105°
2026-05-05 10:10 50.18757 8.83434 34862 ft 474 kts 105°
2026-05-05 10:10 50.17590 8.93552 34861 ft 474 kts 105°
2026-05-05 10:11 50.16409 9.03661 34864 ft 474 kts 105°
2026-05-05 10:11 50.15218 9.13769 34867 ft 474 kts 105°
2026-05-05 10:12 50.14020 9.23878 34852 ft 474 kts 105°
2026-05-05 10:12 50.12818 9.33994 34855 ft 475 kts 105°
2026-05-05 10:13 50.11599 9.44101 34856 ft 474 kts 105°
2026-05-05 10:13 50.10369 9.54201 34858 ft 474 kts 105°
2026-05-05 10:14 50.09130 9.64304 34839 ft 474 kts 105°
2026-05-05 10:14 50.07883 9.74387 34849 ft 474 kts 105°
2026-05-05 10:15 50.06638 9.84473 34856 ft 474 kts 105°
2026-05-05 10:15 50.05381 9.94543 34856 ft 474 kts 105°
2026-05-05 10:16 50.04111 10.04626 34857 ft 474 kts 105°
2026-05-05 10:16 50.02829 10.14679 34843 ft 474 kts 105°
2026-05-05 10:17 50.01537 10.24741 34847 ft 475 kts 105°
2026-05-05 10:17 50.00246 10.34747 34845 ft 475 kts 105°
2026-05-05 10:18 49.98948 10.44818 34855 ft 475 kts 105°
2026-05-05 10:18 49.97631 10.54883 34833 ft 475 kts 105°
2026-05-05 10:19 49.96293 10.64936 34837 ft 475 kts 105°
2026-05-05 10:19 49.94943 10.74983 34849 ft 475 kts 105°